User: anonymous   Login
Location: Unspecified
(0.0000°N, 0.0000°E)
Time: 21:29:52
(UTC+00:00)
Language:

DX 1 - Orbit

View from above orbital plane
View from above orbital plane
View from above satellite
View from above satellite

Ground track
Ground track

The orbit data is extracted from the following two-line orbital elements,

1 40071U 14037C   18344.53244182  .00000062  00000-0  15452-4 0  9995
2 40071  98.3990 124.0398 0009737 112.4304 247.7940 14.81215448239106
Epoch (UTC): 10 December 2018 12:46:42
Eccentricity: 0.0009737
inclination: 98.3990°
perigee height: 618 km
apogee height: 632 km
right ascension of ascending node: 124.0398°
argument of perigee: 112.4304°
revolutions per day: 14.81215448
mean anomaly at epoch: 247.7940°
orbit number at epoch: 23910

The dashed part of the orbit path shows where the satellite is in the earth's shadow,  

DLR